Retour au catalogue

SL-12 DEB

LostHEO
NORAD 29489·DEBRIS·🇷🇺 Russia

Lancé May 31, 1989 depuis Baikonur Cosmodrome

Loading…

Prochains Passages (prochaines 24 heures)

TLE

PériméSource: Space-Track

Époque: May 19, 2024, 11:13 UTC

1 29489U 89039DZ  24140.46755207 -.00050617  00000-0 -49733+1 0  9995
2 29489  61.5467 239.1219 5037798  73.5347 334.4944  4.48152827  3913

Suivez SL-12 DEB en temps réel avec AllMySat

Download on the App Store